User: anonymous   Login
Location: Brunsen
(51.8651°N, 9.8610°E)
Time: 22:30:57
(UTC+00:00)
Language:

Nimbus 7 Rocket - Orbit

View from above orbital plane
View from above orbital plane
View from above satellite
View from above satellite

Ground track
Ground track

The orbit data is extracted from the following two-line orbital elements,

1 11081U 78098B   24206.37253980  .00000115  00000-0  13883-3 0  9997
2 11081  99.3752 128.5666 0028449 202.9517 157.0369 13.85913847151833
Epoch (UTC): 24 July 2024 08:56:27
Eccentricity: 0.0028449
inclination: 99.3752°
perigee height: 922 km
apogee height: 964 km
right ascension of ascending node: 128.5666°
argument of perigee: 202.9517°
revolutions per day: 13.85913847
mean anomaly at epoch: 157.0369°
orbit number at epoch: 15183

The dashed part of the orbit path shows where the satellite is in the earth's shadow,  

DLR